Weather History for Naples, FL

Change the Weather History Date:

Saturday, January 28, 2012

  Actual Average Record
Temperature  
Mean Temperature 72 °F 65 °F  
Max Temperature 79 °F 75 °F 87 °F (1975)
Min Temperature 64 °F 55 °F 32 °F (1986)
Degree Days  
Heating Degree Days 0 3  
Month to date heating degree days 72 97  
Since 1 July heating degree days 97 175  
Cooling Degree Days 7 2  
Month to date cooling degree days 70 82  
Year to date cooling degree days 70 82  
Growing Degree Days 20 (Base 50)    
Moisture  
Dew Point 62 °F    
Average Humidity 80    
Maximum Humidity 100    
Minimum Humidity 60    
Precipitation  
Precipitation 0.00 in 0.07 in 0.62 in (1979)
Month to date precipitation 0.17 1.62  
Year to date precipitation 0.17 1.62  
Snow  
Snow 0.00 in - - ()
Month to date snowfall 0.0  
Since 1 July snowfall 0.0  
Snow Depth 0.00 in    
Sea Level Pressure  
Sea Level Pressure 30.11 in    
Wind  
Wind Speed 6 mph (North)    
Max Wind Speed 16 mph    
Max Gust Speed 17 mph    
Visibility 7 miles    
Events Fog    
T = Trace of Precipitation, MM = Missing Value Source: NWS Daily Summary

Daily Weather History Graph

Daily Weather History Graph

Search for Another Location

Airport:

Trip Planner

Search our weather history database for the weather conditions in past years. The results will help you decide how hot, cold, wet, or windy it might be!

Date:

Astronomy

Jan. 28, 2012 Rise Set
Actual Time 7:13 AM EST 6:06 PM EST
Civil Twilight 6:49 AM EST 6:31 PM EST
Nautical Twilight 6:21 AM EST 6:59 PM EST
Astronomical Twilight 5:53 AM EST 7:26 PM EST
Moon 10:13 AM EST (1/28) 11:12 PM EST (1/28)
Length of Visible Light 11h 42m
Length of Day
10h 53m
Waxing Crescent, 27% of the Moon is Illuminated
Jan 28
Waxing Crescent
Jan 30
First Quarter
Feb 7
Full
Feb 14
Last Quarter
Feb 21
New

Hourly Weather History & Observations

Time (EST) Temp. Dew Point Humidity Pressure Visibility Wind Dir Wind Speed Gust Speed Precip Events Conditions
12:02 AM 64.4 °F 64.4 °F 100% 30.07 in 0.5 mi Calm Calm - N/A Fog Fog
12:11 AM 64.4 °F 64.4 °F 100% 30.07 in 1.0 mi Calm Calm - N/A   Mist
12:19 AM 64.4 °F 64.4 °F 100% 30.07 in 3.0 mi Calm Calm - N/A   Scattered Clouds
12:53 AM 64.0 °F 63.0 °F 96% 30.07 in 2.0 mi Calm Calm - N/A   Clear
1:02 AM 64.4 °F 64.4 °F 100% 30.07 in 1.8 mi Calm Calm - N/A   Partly Cloudy
1:09 AM 64.4 °F 62.6 °F 94% 30.07 in 0.8 mi Calm Calm - N/A   Mist
1:22 AM 64.4 °F 64.4 °F 100% 30.07 in 2.0 mi Calm Calm - N/A   Mostly Cloudy
1:29 AM 64.4 °F 64.4 °F 100% 30.07 in 4.0 mi Calm Calm - N/A   Overcast
1:53 AM 64.9 °F 64.0 °F 97% 30.07 in 6.0 mi NE 3.5 mph - N/A   Overcast
2:53 AM 64.0 °F 62.1 °F 93% 30.07 in 9.0 mi NE 5.8 mph - N/A   Scattered Clouds
3:15 AM 64.4 °F 62.6 °F 94% 30.08 in 8.0 mi North 3.5 mph - N/A   Mostly Cloudy
3:53 AM 64.0 °F 62.1 °F 93% 30.09 in 8.0 mi NNE 4.6 mph - N/A   Overcast
4:53 AM 64.9 °F 62.1 °F 90% 30.09 in 9.0 mi NNE 5.8 mph - N/A   Overcast
5:28 AM 64.4 °F 60.8 °F 88% 30.09 in 9.0 mi NE 6.9 mph - N/A   Mostly Cloudy
5:53 AM 64.0 °F 61.0 °F 90% 30.09 in 9.0 mi NNE 5.8 mph - N/A   Overcast
6:53 AM 64.0 °F 61.0 °F 90% 30.12 in 8.0 mi NNE 3.5 mph - N/A   Mostly Cloudy
7:53 AM 64.0 °F 62.1 °F 93% 30.13 in 7.0 mi ENE 6.9 mph - N/A   Overcast
8:53 AM 64.9 °F 62.1 °F 90% 30.15 in 7.0 mi ENE 3.5 mph - N/A   Mostly Cloudy
9:53 AM 66.9 °F 63.0 °F 87% 30.16 in 8.0 mi NE 5.8 mph - N/A   Scattered Clouds
10:53 AM 73.9 °F 64.0 °F 71% 30.16 in 10.0 mi ENE 4.6 mph - N/A   Scattered Clouds
11:53 AM 77.0 °F 63.0 °F 62% 30.16 in 10.0 mi Variable 6.9 mph - N/A   Clear
12:53 PM 75.9 °F 61.0 °F 60% 30.13 in 10.0 mi NNW 6.9 mph - N/A   Clear
1:53 PM 75.9 °F 63.0 °F 64% 30.11 in 10.0 mi NW 9.2 mph - N/A   Clear
2:53 PM 73.0 °F 62.1 °F 68% 30.10 in 10.0 mi NW 9.2 mph - N/A   Partly Cloudy
3:53 PM 71.1 °F 57.9 °F 63% 30.10 in 10.0 mi NW 10.4 mph - N/A   Partly Cloudy
4:53 PM 69.1 °F 59.0 °F 70% 30.12 in 10.0 mi WNW 9.2 mph - N/A   Clear
5:53 PM 66.9 °F 59.0 °F 76% 30.14 in 10.0 mi NW 12.7 mph - N/A   Clear
6:53 PM 66.0 °F 57.9 °F 75% 30.15 in 10.0 mi NW 10.4 mph - N/A   Clear
7:53 PM 66.0 °F 57.9 °F 75% 30.17 in 10.0 mi NW 6.9 mph - N/A   Clear
8:53 PM 66.0 °F 59.0 °F 78% 30.17 in 10.0 mi NNW 5.8 mph - N/A   Clear
9:53 PM 66.0 °F 57.9 °F 75% 30.17 in 10.0 mi NNW 3.5 mph - N/A   Clear
10:53 PM 66.0 °F 57.9 °F 75% 30.17 in 10.0 mi NNW 3.5 mph - N/A   Clear
11:53 PM 66.2 °F 57.2 °F 73% 30.18 in 10.0 mi Calm Calm - N/A   Mostly Cloudy